#timestamp,LO_Frequency,Hit,StdDev 
1689868815.2,286046999.9,N
1689868835.0,286047000.3,N
1689868835.9,286047000.3,N
1689868855.7,286047002.4,N
1689868875.6,286047000.2,N
1689868895.4,286047000.5,N
1689868915.3,286047002.8,N
1689868935.1,286047001.8,N
1689868955.8,286047002.5,N
1689868975.7,286047002.8,N
1689868995.5,286047000.0,N
1689869015.4,286047000.9,N
1689869035.2,286047002.7,N
1689869055.0,286047001.7,N
1689869055.9,286047001.7,N
1689869075.8,286047001.3,N
1689869095.6,286047001.3,N
1689869115.4,286047001.6,N
1689869135.3,286047001.4,N
1689869155.1,286047001.7,N
1689869175.9,286047002.8,N
1689869195.7,286047000.0,N
1689869215.5,286047002.4,N
1689869235.4,286047000.0,N
1689869255.2,286047002.6,N
1689869275.0,286047002.6,N
1689869275.9,286047002.6,N
1689869295.8,286047002.8,N
1689869315.6,286047000.2,N
1689869335.5,286047001.6,N
1689869355.3,286047001.4,N
1689869375.1,286047002.1,N
1689869395.9,286047001.3,N
1689869415.7,286047001.4,N
1689869435.5,286047002.5,N
1689869455.4,286047002.5,N
1689869475.2,286047001.9,N
1689869495.1,286047001.3,N
1689869496.0,286047001.3,N
1689869515.8,286047002.0,N
1689869535.6,286047002.1,N
1689869555.5,286047002.2,N
1689869575.3,286047002.6,Y
1689869595.1,286047000.6,P
1689869615.9,286047000.8,N
1689869635.7,286047001.2,N
1689869655.6,286047001.1,N
1689869675.4,286046998.2,Y
1689869695.2,286046999.6,P
1689869715.1,286046998.9,N
1689869716.0,286046998.9,N
1689869735.8,286046998.6,N
1689869755.7,286046998.1,N
1689869775.5,286047000.4,N
1689869795.3,286047000.6,N
1689869815.2,286046999.7,N
1689869835.9,286047001.1,N
1689869855.7,286046998.6,N
1689869875.6,286046999.4,N
1689869895.4,286046996.6,Y
1689869915.3,286046999.0,P
1689869935.1,286046999.3,N
1689869936.0,286046999.3,P
1689869955.8,286046998.2,Y
1689869975.7,286047000.1,P
1689869995.5,286047001.0,N
1689870015.3,286047000.8,N
1689870035.2,286046999.9,N
1689870055.0,286046999.9,N
1689870055.9,286046999.9,N
1689870075.8,286047002.4,Y
1689870095.6,286047001.3,P
1689870115.4,286047003.3,P
1689870135.3,286047003.2,N
1689870155.1,286047002.0,N
1689870175.9,286047004.1,Y
1689870195.7,286047000.0,P
1689870215.5,286046999.7,N
1689870235.4,286047000.2,N
1689870255.2,286047000.3,N
1689870275.0,286047000.5,N
1689870275.9,286047000.5,N
1689870295.8,286046999.9,N
1689870315.6,286047002.7,Y
1689870335.5,286046998.5,P
1689870355.3,286047001.0,N
1689870375.1,286047002.2,N
1689870395.9,286047002.6,N
1689870415.7,286047002.3,N
1689870435.6,286047000.4,N
1689870455.4,286046999.4,N
1689870475.2,286046998.1,N
1689870495.1,286047000.0,N
1689870496.0,286047000.0,N
1689870515.8,286047001.0,N
1689870535.6,286047000.7,N
1689870555.5,286047000.9,N
1689870575.3,286047002.8,N
1689870595.2,286046999.8,N
1689870615.9,286047000.8,N
1689870635.7,286046999.8,N
1689870655.6,286047002.8,N
1689870675.4,286046998.3,N
1689870695.2,286046998.8,N
1689870715.1,286046998.3,N
1689870716.0,286046998.3,N
1689870735.8,286046998.2,N
1689870755.7,286046998.4,N
1689870775.5,286046998.1,N
1689870795.3,286046999.0,N
1689870815.2,286046997.0,N
1689870835.0,286046996.5,N
1689870835.9,286046996.5,N
1689870855.7,286046996.6,N
1689870875.6,286046999.6,N
1689870895.4,286046999.0,N
1689870915.3,286047000.9,N
1689870935.1,286046999.0,N
1689870936.0,286046999.0,N
1689870955.8,286046998.7,N
1689870975.7,286046999.4,N
1689870995.5,286046998.8,N
1689871015.4,286046998.7,N
1689871035.2,286047001.1,N
1689871055.0,286046998.8,N
1689871055.9,286046998.8,N
1689871075.8,286047001.0,N
1689871095.6,286047000.3,N
1689871115.4,286047000.8,N
1689871135.3,286047000.5,N
1689871155.1,286047001.2,N
1689871175.9,286047001.2,N
1689871195.7,286047000.4,N
1689871215.5,286047000.4,N
1689871235.4,286046999.0,N
1689871255.2,286046998.6,N
1689871275.0,286046998.2,N
1689871275.9,286046998.2,N
1689871295.8,286047000.5,N
1689871315.6,286046998.8,N
1689871335.5,286046998.6,N
1689871355.3,286046998.3,N
1689871375.1,286046998.7,N
1689871395.9,286047001.2,N
1689871415.7,286046999.1,N
1689871435.5,286046999.4,N
1689871455.4,286046999.5,N
1689871475.2,286046998.8,N
1689871495.1,286046996.9,Y
1689871496.0,286046996.9,P
1689871515.8,286046999.1,N
1689871535.6,286046995.0,P
1689871555.5,286046996.9,N
1689871575.3,286046997.1,N
1689871595.2,286046997.3,N
1689871615.9,286046997.8,N
1689871635.7,286046996.8,N
1689871655.6,286046998.8,N
1689871675.4,286046998.2,N
1689871695.2,286046997.3,N
1689871715.1,286046996.1,Y
1689871716.0,286046996.1,P
1689871735.8,286046999.4,N
1689871755.7,286047000.4,N
1689871775.5,286047000.6,N
1689871795.3,286047000.8,N
1689871815.2,286047000.5,N
1689871835.0,286047001.1,N
1689871835.9,286047001.1,N
1689871855.8,286046999.8,N
1689871875.6,286047002.4,N
1689871895.4,286046998.3,N
1689871915.3,286046999.6,N
1689871935.1,286046999.5,N
1689871955.8,286046998.2,N
1689871975.7,286047001.2,N
1689871995.5,286047001.2,N
1689872015.3,286046998.6,N
1689872035.2,286046998.1,N
1689872055.0,286046998.8,N
1689872055.9,286046998.8,N
1689872075.8,286046996.8,N
1689872095.6,286046999.6,N
1689872115.4,286046999.1,N
1689872135.3,286046998.6,N
1689872155.1,286047001.0,N
1689872175.9,286046996.5,N
1689872195.7,286046999.1,N
1689872215.5,286046999.1,N
1689872235.4,286046998.8,N
1689872255.2,286046996.7,N
1689872275.0,286046996.7,N
1689872275.9,286046996.7,N
1689872295.8,286046996.9,N
1689872315.6,286046999.6,N
1689872335.5,286046997.5,N
1689872355.3,286046998.0,N
1689872375.1,286046997.7,N
1689872395.9,286046996.7,N
